Weather History for Windsor, ON

Change the Weather History Date:

Friday, October 19, 2012

  Actual Average Record
Temperature  
Mean Temperature 52 °F -  
Max Temperature 57 °F 52 °F 73 °F (2007)
Min Temperature 46 °F 37 °F 31 °F (2014)
Degree Days  
Heating Degree Days 14    
Growing Degree Days 2 (Base 50)    
Moisture  
Dew Point 44 °F    
Average Humidity 76    
Maximum Humidity 100    
Minimum Humidity 52    
Precipitation  
Precipitation 0.12 in 0.09 in - ()
Sea Level Pressure  
Sea Level Pressure 29.62 in    
Wind  
Wind Speed 7 mph ()    
Max Wind Speed 15 mph    
Max Gust Speed 21 mph    
Visibility 14.0 miles    
Events Rain    
Averages and records for this station are not official NWS values.
T = Trace of Precipitation, MM = Missing Value Source: Averaged Metar Reports

Daily Weather History Graph

Daily Weather History Graph

Search for Another Location

Airport:

Trip Planner

Search our weather history database for the weather conditions in past years. The results will help you decide how hot, cold, wet, or windy it might be!

Date:

Astronomy

Oct. 19, 2012 Rise Set
Actual Time 7:49 AM EDT 6:42 PM EDT
Civil Twilight 7:21 AM EDT 7:11 PM EDT
Nautical Twilight 6:48 AM EDT 7:43 PM EDT
Astronomical Twilight 6:16 AM EDT 8:16 PM EDT
Moon 12:35 PM EDT (10/19) 10:16 PM EDT (10/19)
Length of Visible Light 11h 49m
Length of Day
10h 53m
Waxing Crescent, 23% of the Moon is Illuminated
Oct 19
Waxing Crescent
Oct 21
First Quarter
Oct 29
Full
Nov 6
Last Quarter
Nov 13
New

Hourly Weather History & Observations

Time (EDT) Temp. Windchill Dew Point Humidity Pressure Visibility Wind Dir Wind Speed Gust Speed Precip Events Conditions
12:00 AM 51.8 °F - 39.2 °F 62% 29.69 in 15.0 mi South 6.9 mph - N/A   Partly Cloudy
1:00 AM 51.8 °F - 39.2 °F 62% 29.67 in 15.0 mi SSE 4.6 mph - N/A   Mostly Cloudy
2:00 AM 50 °F - 40 °F 60% 29.66 in 15 mi Calm Calm - -   Mostly Cloudy
2:00 AM 50.0 °F - 41.0 °F 71% 29.66 in 15.0 mi Calm Calm - N/A   Mostly Cloudy
3:00 AM 50.0 °F - 42.8 °F 76% 29.65 in 15.0 mi SE 3.5 mph - N/A   Partly Cloudy
4:00 AM 50.0 °F - 44.6 °F 82% 29.64 in 15.0 mi SSE 4.6 mph - N/A   Mostly Cloudy
5:00 AM 51.8 °F - 46.4 °F 82% 29.62 in 15.0 mi SSE 9.2 mph - N/A   Mostly Cloudy
6:00 AM 53.6 °F - 48.2 °F 82% 29.62 in 15.0 mi SSE 11.5 mph - N/A   Mostly Cloudy
7:00 AM 53.6 °F - 46.4 °F 77% 29.61 in 15.0 mi SSE 10.4 mph - N/A   Mostly Cloudy
8:00 AM 53 °F - 45 °F 67% 29.61 in 15 mi South 10.4 mph - -   Overcast
8:00 AM 53.6 °F - 44.6 °F 72% 29.61 in 15.0 mi South 10.4 mph - N/A   Overcast
9:00 AM 53.6 °F - 44.6 °F 72% 29.62 in 15.0 mi South 8.1 mph 17.3 mph N/A   Overcast
10:00 AM 53.6 °F - 46.4 °F 77% 29.62 in 15.0 mi South 8.1 mph - N/A   Overcast
10:17 AM - - - N/A% - 15.0 mi South 9.2 mph - N/A Rain Light Rain Showers
11:00 AM 53.6 °F - 46.4 °F 77% 29.61 in 15.0 mi SSE 11.5 mph - N/A   Overcast
11:24 AM - - - N/A% - 15.0 mi SSE 9.2 mph - N/A   Overcast
11:52 AM - - - N/A% - 15.0 mi South 15.0 mph - N/A Rain Light Rain Showers
12:00 PM 53.6 °F - 44.6 °F 72% 29.62 in 15.0 mi SSW 13.8 mph 20.7 mph N/A Rain Light Rain Showers
12:31 PM - - - N/A% - 15.0 mi SSW 11.5 mph 17.3 mph N/A   Overcast
1:00 PM 55.4 °F - 41.0 °F 58% 29.60 in 15.0 mi South 9.2 mph - N/A   Overcast
2:00 PM 56 °F - 43 °F 52% 29.58 in 15 mi South 9.2 mph - -   Partly Cloudy
2:00 PM 55.4 °F - 42.8 °F 63% 29.58 in 15.0 mi SSE 10.4 mph - N/A   Mostly Cloudy
3:00 PM 57.2 °F - 41.0 °F 55% 29.58 in 15.0 mi SSE 12.7 mph - N/A   Mostly Cloudy
3:47 PM - - - N/A% - 15.0 mi SSW 9.2 mph - N/A Rain Light Rain Showers
4:00 PM 55.4 °F - 42.8 °F 63% 29.58 in 15.0 mi SSW 13.8 mph - N/A Rain Light Rain Showers
5:00 PM 50.0 °F - 44.6 °F 82% 29.60 in 8.0 mi South 9.2 mph 19.6 mph N/A Rain Light Rain Showers
6:00 PM 48.2 °F - 48.2 °F 100% 29.62 in 7.0 mi South 5.8 mph - N/A Rain Light Rain
7:00 PM 48.2 °F - 46.4 °F 93% 29.62 in 12.0 mi SSW 9.2 mph - N/A Rain Light Rain
8:00 PM 47 °F - 46 °F 93% 29.62 in 12 mi SSW 6.9 mph - - Rain Light Rain
8:00 PM 48.2 °F - 46.4 °F 93% 29.62 in 12.0 mi SSW 5.8 mph - N/A Rain Light Rain
9:00 PM 46.4 °F 45.2 °F 46.4 °F 100% 29.62 in 10.0 mi SSW 3.5 mph - N/A Rain Light Rain
10:00 PM 46.4 °F 42.4 °F 46.4 °F 100% 29.62 in 12.0 mi SW 8.1 mph - N/A Rain Light Rain
11:00 PM 46.4 °F 43.5 °F 44.6 °F 93% 29.61 in 15.0 mi SW 5.8 mph - N/A Rain Light Rain